• In Czech Republic
  • List of Countries
  • For 7 days
  • Water Temperature
  • Satellite Maps
  • Weather Map
  • Weather Widgets
  • user-avatar
    Login

    Hourly Weather Wiktoria

    Today, 22 June, Thursday

    Time Temperature Precipitation Wind Pressure Humidity
    00:00 +7°C° 0 mm 1 mps 759 mmHg 98%
    01:00 +6°C° 0 mm 1 mps 759 mmHg 98%
    02:00 +6°C° 0 mm 1 mps 759 mmHg 98%
    03:00 +6°C° 0 mm 1 mps 759 mmHg 98%
    04:00 +3°C° 0 mm 0 mps 758 mmHg 99%
    05:00 +3°C° 0 mm 0 mps 758 mmHg 99%
    06:00 +4°C° 0 mm 1 mps 758 mmHg 99%
    07:00 +4°C° 0 mm 1 mps 758 mmHg 99%
    08:00 +5°C° 0 mm 0 mps 758 mmHg 91%
    09:00 +8°C° 0 mm 0 mps 759 mmHg 83%
    10:00 +10°C° 0 mm 0 mps 759 mmHg 72%
    11:00 +12°C° 0 mm 0 mps 758 mmHg 65%
    12:00 +13°C° 0 mm 0 mps 758 mmHg 58%
    13:00 +15°C° 0 mm 0 mps 757 mmHg 51%
    14:00 +14°C° 0 mm 0 mps 757 mmHg 55%
    15:00 +14°C° 0 mm 0 mps 756 mmHg 58%
    16:00 +12°C° 0 mm 0 mps 756 mmHg 71%
    17:00 +10°C° 0 mm 0 mps 756 mmHg 78%
    18:00 +7°C° 0 mm 0 mps 756 mmHg 85%
    19:00 +5°C° 0 mm 0 mps 756 mmHg 92%
    20:00 +5°C° 0 mm 0 mps 756 mmHg 93%
    21:00 +5°C° 0 mm 0 mps 756 mmHg 94%
    22:00 +4°C° 0 mm 0 mps 755 mmHg 99%
    23:00 +4°C° 0 mm 0 mps 755 mmHg 99%

    Tomorrow, 23 June, Friday

    Time Temperature Precipitation Wind Pressure Humidity
    00:00 +5°C° 0 mm 1 mps 755 mmHg 98%
    01:00 +5°C° 0 mm 1 mps 755 mmHg 98%
    02:00 +5°C° 0 mm 1 mps 754 mmHg 98%
    03:00 +5°C° 0 mm 1 mps 754 mmHg 97%
    04:00 +5°C° 0 mm 1 mps 754 mmHg 97%
    05:00 +5°C° 0 mm 1 mps 753 mmHg 97%
    06:00 +5°C° 0 mm 1 mps 753 mmHg 97%
    07:00 +5°C° 0 mm 1 mps 753 mmHg 98%
    08:00 +6°C° 0 mm 1 mps 753 mmHg 91%
    09:00 +8°C° 0 mm 1 mps 753 mmHg 84%
    10:00 +10°C° 0 mm 1 mps 753 mmHg 77%
    11:00 +11°C° 0 mm 1 mps 752 mmHg 70%
    12:00 +13°C° 0 mm 1 mps 751 mmHg 63%
    13:00 +15°C° 0 mm 1 mps 751 mmHg 55%
    14:00 +14°C° 0 mm 1 mps 750 mmHg 56%
    15:00 +14°C° 0 mm 1 mps 750 mmHg 56%
    16:00 +14°C° 0 mm 1 mps 750 mmHg 56%
    17:00 +12°C° 0 mm 1 mps 750 mmHg 63%
    18:00 +11°C° 0 mm 1 mps 750 mmHg 70%
    19:00 +9°C° 0 mm 1 mps 750 mmHg 78%
    20:00 +8°C° 0 mm 1 mps 750 mmHg 79%
    21:00 +8°C° 0 mm 1 mps 750 mmHg 80%
    22:00 +8°C° 0 mm 1 mps 750 mmHg 82%
    23:00 +7°C° 0 mm 1 mps 750 mmHg 84%

    Day after tomorrow, 24 June, Saturday

    Time Temperature Precipitation Wind Pressure Humidity
    00:00 +6°C° 0 mm 1 mps 750 mmHg 86%
    01:00 +6°C° 0 mm 1 mps 750 mmHg 89%
    02:00 +5°C° 0 mm 1 mps 750 mmHg 91%
    03:00 +5°C° 0 mm 1 mps 750 mmHg 94%
    04:00 +5°C° 0 mm 1 mps 750 mmHg 97%
    05:00 +5°C° 0 mm 1 mps 750 mmHg 97%
    06:00 +5°C° 0 mm 1 mps 751 mmHg 98%
    07:00 +5°C° 0 mm 1 mps 751 mmHg 99%
    08:00 +7°C° 0 mm 1 mps 752 mmHg 91%
    09:00 +9°C° 0 mm 1 mps 752 mmHg 83%
    10:00 +10°C° 0 mm 1 mps 753 mmHg 76%
    11:00 +11°C° 0 mm 1 mps 752 mmHg 69%
    12:00 +12°C° 0 mm 1 mps 752 mmHg 63%
    13:00 +13°C° 0 mm 1 mps 751 mmHg 57%
    14:00 +12°C° 0 mm 1 mps 751 mmHg 58%
    15:00 +12°C° 0 mm 1 mps 751 mmHg 59%
    16:00 +11°C° 0 mm 1 mps 751 mmHg 60%
    17:00 +9°C° 0 mm 1 mps 751 mmHg 69%
    18:00 +7°C° 0 mm 1 mps 752 mmHg 78%
    19:00 +5°C° 0 mm 1 mps 752 mmHg 87%
    20:00 +4°C° 0 mm 1 mps 752 mmHg 90%
    21:00 +1°C° 0 mm 0 mps 752 mmHg 93%
    22:00 0°C° 0 mm 0 mps 752 mmHg 96%
    23:00 0°C° 0 mm 0 mps 752 mmHg 96%

    25 June, Sunday

    Time Temperature Precipitation Wind Pressure Humidity
    00:00 +1°C° 0 mm 0 mps 752 mmHg 95%
    01:00 +1°C° 0 mm 0 mps 752 mmHg 94%
    02:00 +1°C° 0 mm 0 mps 752 mmHg 94%
    03:00 +2°C° 0 mm 1 mps 752 mmHg 93%
    04:00 +3°C° 0 mm 1 mps 752 mmHg 93%
    05:00 +3°C° 0 mm 1 mps 752 mmHg 92%
    06:00 +3°C° 0 mm 0 mps 752 mmHg 90%
    07:00 +3°C° 0 mm 0 mps 752 mmHg 89%
    08:00 +4°C° 0 mm 0 mps 752 mmHg 85%
    09:00 +6°C° 0 mm 0 mps 752 mmHg 80%
    10:00 +7°C° 0 mm 0 mps 753 mmHg 76%
    11:00 +8°C° 0 mm 0 mps 752 mmHg 76%
    12:00 +9°C° 0 mm 1 mps 752 mmHg 77%
    13:00 +10°C° 0 mm 1 mps 751 mmHg 77%
    14:00 +9°C° 0.2 mm 1 mps 751 mmHg 82%
    15:00 +8°C° 0.2 mm 0 mps 751 mmHg 87%
    16:00 +8°C° 0.2 mm 0 mps 751 mmHg 92%
    17:00 +6°C° 0 mm 0 mps 751 mmHg 94%
    18:00 +4°C° 0 mm 0 mps 751 mmHg 97%
    19:00 +2°C° 0 mm 0 mps 752 mmHg 99%
    20:00 +4°C° 0 mm 1 mps 752 mmHg 99%
    21:00 +4°C° 0 mm 1 mps 752 mmHg 99%
    22:00 +5°C° 0 mm 1 mps 753 mmHg 99%
    23:00 +5°C° 0 mm 1 mps 753 mmHg 99%

    26 June, Monday

    Time Temperature Precipitation Wind Pressure Humidity
    00:00 +5°C° 0 mm 1 mps 753 mmHg 99%
    01:00 +5°C° 0 mm 1 mps 753 mmHg 99%
    02:00 +5°C° 0 mm 1 mps 753 mmHg 99%
    03:00 +4°C° 0 mm 1 mps 754 mmHg 99%
    04:00 +4°C° 0 mm 1 mps 754 mmHg 99%
    05:00 +4°C° 0 mm 1 mps 754 mmHg 99%
    06:00 +3°C° 0 mm 1 mps 755 mmHg 99%
    07:00 +3°C° 0 mm 1 mps 755 mmHg 99%
    08:00 +4°C° 0 mm 1 mps 756 mmHg 96%
    09:00 +6°C° 0 mm 1 mps 757 mmHg 93%
    10:00 +8°C° 0 mm 1 mps 757 mmHg 90%
    11:00 +9°C° 0 mm 1 mps 757 mmHg 80%
    12:00 +11°C° 0 mm 1 mps 757 mmHg 70%
    13:00 +12°C° 0 mm 1 mps 757 mmHg 59%
    14:00 +12°C° 0 mm 1 mps 757 mmHg 60%
    15:00 +12°C° 0 mm 1 mps 757 mmHg 60%
    16:00 +12°C° 0 mm 1 mps 757 mmHg 61%
    17:00 +10°C° 0 mm 1 mps 758 mmHg 69%
    18:00 +9°C° 0 mm 1 mps 758 mmHg 77%
    19:00 +7°C° 0 mm 1 mps 759 mmHg 86%
    20:00 +6°C° 0 mm 1 mps 759 mmHg 89%
    21:00 +5°C° 0 mm 1 mps 759 mmHg 92%
    22:00 +5°C° 0 mm 1 mps 760 mmHg 95%
    23:00 +4°C° 0 mm 1 mps 760 mmHg 96%

    27 June, Tuesday

    Time Temperature Precipitation Wind Pressure Humidity
    00:00 +4°C° 0 mm 1 mps 760 mmHg 97%
    01:00 +4°C° 0 mm 1 mps 759 mmHg 98%
    02:00 +4°C° 0 mm 1 mps 759 mmHg 98%
    03:00 +3°C° 0 mm 1 mps 760 mmHg 98%
    04:00 +3°C° 0 mm 1 mps 760 mmHg 98%
    05:00 +3°C° 0 mm 1 mps 760 mmHg 99%
    06:00 +3°C° 0 mm 1 mps 760 mmHg 99%
    07:00 +2°C° 0 mm 1 mps 760 mmHg 99%
    08:00 +4°C° 0 mm 1 mps 761 mmHg 91%
    09:00 +6°C° 0 mm 1 mps 761 mmHg 83%
    10:00 +8°C° 0 mm 1 mps 761 mmHg 75%
    11:00 +9°C° 0 mm 0 mps 760 mmHg 67%
    12:00 +10°C° 0 mm 0 mps 760 mmHg 58%
    13:00 +12°C° 0 mm 0 mps 759 mmHg 50%
    14:00 +12°C° 0 mm 0 mps 759 mmHg 52%
    15:00 +12°C° 0 mm 0 mps 759 mmHg 55%
    16:00 +11°C° 0 mm 0 mps 759 mmHg 57%
    17:00 +10°C° 0 mm 1 mps 759 mmHg 65%
    18:00 +8°C° 0 mm 1 mps 759 mmHg 73%
    19:00 +6°C° 0 mm 1 mps 760 mmHg 81%
    20:00 +6°C° 0 mm 1 mps 760 mmHg 84%
    21:00 +6°C° 0 mm 1 mps 760 mmHg 88%
    22:00 +5°C° 0 mm 1 mps 760 mmHg 92%
    23:00 +5°C° 0 mm 1 mps 760 mmHg 94%
    Show more